Weather History for Cheraw, SC

Change the Weather History Date:

Saturday, January 19, 2013

  Actual Average (KFLO) Record (KFLO)
Temperature  
Mean Temperature 42 °F 45 °F  
Max Temperature 57 °F 55 °F 78 °F (2001)
Min Temperature 26 °F 35 °F 12 °F (1994)
Degree Days  
Heating Degree Days 24 20  
Month to date heating degree days 387  
Since 1 July heating degree days 1366  
Cooling Degree Days 0 0  
Month to date cooling degree days 0  
Year to date cooling degree days 0  
Moisture  
Dew Point 30 °F    
Average Humidity 72    
Maximum Humidity 100    
Minimum Humidity 30    
Precipitation  
Precipitation 0.00 in 0.10 in 1.44 in (1978)
Month to date precipitation 2.00  
Year to date precipitation 2.00  
Sea Level Pressure  
Sea Level Pressure 30.37 in    
Wind  
Wind Speed 3 mph (SSW)    
Max Wind Speed 14 mph    
Max Gust Speed 21 mph    
Visibility 10 miles    
Events      
T = Trace of Precipitation, MM = Missing Value Source: NWS Daily Summary

Daily Weather History Graph

Daily Weather History Graph

Search for Another Location

Airport:

Trip Planner

Search our weather history database for the weather conditions in past years. The results will help you decide how hot, cold, wet, or windy it might be!

Date:

Astronomy

Jan. 19, 2013 Rise Set
Actual Time 7:25 AM EST 5:36 PM EST
Civil Twilight 6:58 AM EST 6:03 PM EST
Nautical Twilight 6:27 AM EST 6:34 PM EST
Astronomical Twilight 5:57 AM EST 7:04 PM EST
Moon 11:58 AM EST (1/19) 1:01 AM EST (1/19)
Length of Visible Light 11h 05m
Length of Day
10h 11m
First Quarter, 57% of the Moon is Illuminated
Jan 19
First Quarter
Jan 26
Full
Feb 3
Last Quarter
Feb 10
New
Feb 17
First Quarter

Hourly Weather History & Observations

Time (EST) Temp. Windchill Dew Point Humidity Pressure Visibility Wind Dir Wind Speed Gust Speed Precip Events Conditions
12:15 AM 32.0 °F - 28.4 °F 87% 30.51 in 10.0 mi Calm Calm - N/A   Clear
12:35 AM 32.0 °F - 26.6 °F 80% 30.51 in 10.0 mi Calm Calm - N/A   Clear
12:55 AM 32.0 °F - 28.4 °F 87% 30.51 in 10.0 mi Calm Calm - N/A   Clear
1:15 AM 30.2 °F - 28.4 °F 93% 30.51 in 10.0 mi Calm Calm - N/A   Clear
1:35 AM 30.2 °F - 28.4 °F 93% 30.51 in 10.0 mi Calm Calm - N/A   Clear
1:55 AM 30.2 °F - 28.4 °F 93% 30.51 in 10.0 mi Calm Calm - N/A   Clear
2:15 AM 28.4 °F - 28.4 °F 100% 30.50 in 10.0 mi Calm Calm - N/A   Clear
2:35 AM 28.4 °F - 28.4 °F 100% 30.50 in 10.0 mi Calm Calm - N/A   Clear
2:55 AM 26.6 °F - 26.6 °F 100% 30.50 in 10.0 mi Calm Calm - N/A   Clear
3:15 AM 28.4 °F - 26.6 °F 93% 30.50 in 10.0 mi Calm Calm - N/A   Clear
3:35 AM 28.4 °F - 28.4 °F 100% 30.50 in 10.0 mi Calm Calm - N/A   Clear
3:55 AM 28.4 °F - 26.6 °F 93% 30.49 in 10.0 mi Calm Calm - N/A   Clear
4:15 AM 28.4 °F - 28.4 °F 100% 30.49 in 10.0 mi Calm Calm - N/A   Clear
4:35 AM 28.4 °F - 28.4 °F 100% 30.48 in 10.0 mi Calm Calm - N/A   Clear
4:55 AM 28.4 °F - 28.4 °F 100% 30.48 in 10.0 mi Calm Calm - N/A   Clear
5:15 AM 26.6 °F - 26.6 °F 100% 30.47 in 10.0 mi Calm Calm - N/A   Clear
5:35 AM 28.4 °F - 28.4 °F 100% 30.47 in 10.0 mi Calm Calm - N/A   Clear
5:55 AM 26.6 °F 22.6 °F 26.6 °F 100% 30.47 in 10.0 mi WNW 3.5 mph - N/A   Clear
6:15 AM 26.6 °F - 26.6 °F 100% 30.47 in 10.0 mi Calm Calm - N/A   Clear
6:35 AM 26.6 °F - 26.6 °F 100% 30.47 in 10.0 mi Calm Calm - N/A   Clear
7:35 AM 28.4 °F - 26.6 °F 93% 30.46 in 10.0 mi Calm Calm - N/A   Clear
7:55 AM 28.4 °F - 26.6 °F 93% 30.47 in 10.0 mi Calm Calm - N/A   Clear
8:15 AM 28.4 °F 22.2 °F 28.4 °F 100% 30.47 in 10.0 mi North 5.8 mph - N/A   Clear
8:55 AM 32.0 °F - 30.2 °F 93% 30.48 in 10.0 mi Calm Calm - N/A   Clear
9:15 AM 33.8 °F 29.6 °F 30.2 °F 87% 30.49 in 10.0 mi NE 4.6 mph - N/A   Clear
9:35 AM 35.6 °F - 30.2 °F 81% 30.50 in 10.0 mi Calm Calm - N/A   Clear
10:35 AM 39.2 °F - 32.0 °F 75% 30.48 in 10.0 mi Calm Calm - N/A   Clear
10:55 AM 42.8 °F - 30.2 °F 61% 30.47 in 10.0 mi Calm Calm - N/A   Clear
11:15 AM 46.4 °F - 26.6 °F 46% 30.46 in 10.0 mi Calm Calm - N/A   Clear
11:35 AM 46.4 °F 42.9 °F 26.6 °F 46% 30.44 in 10.0 mi SE 6.9 mph - N/A   Clear
12:15 PM 50.0 °F - 28.4 °F 43% 30.40 in 10.0 mi ESE 8.1 mph - N/A   Clear
12:35 PM 48.2 °F - 26.6 °F 43% 30.38 in 10.0 mi South 10.4 mph - N/A   Clear
12:55 PM 50.0 °F - 24.8 °F 37% 30.37 in 10.0 mi South 6.9 mph 16.1 mph N/A   Clear
1:15 PM 51.8 °F - 26.6 °F 38% 30.35 in 10.0 mi SSE 11.5 mph 20.7 mph N/A   Clear
1:35 PM 53.6 °F - 24.8 °F 33% 30.33 in 10.0 mi SSW 13.8 mph 20.7 mph N/A   Clear
1:55 PM 53.6 °F - 23.0 °F 30% 30.32 in 10.0 mi SW 8.1 mph 17.3 mph N/A   Clear
2:15 PM 55.4 °F - 26.6 °F 33% 30.30 in 10.0 mi SSW 13.8 mph 17.3 mph N/A   Clear
2:35 PM 55.4 °F - 26.6 °F 33% 30.29 in 10.0 mi West 8.1 mph 17.3 mph N/A   Clear
2:55 PM 57.2 °F - 26.6 °F 31% 30.29 in 10.0 mi SSE 5.8 mph - N/A   Clear
3:15 PM 57.2 °F - 26.6 °F 31% 30.28 in 10.0 mi SW 6.9 mph - N/A   Clear
3:55 PM 57.2 °F - 30.2 °F 36% 30.27 in 10.0 mi South 5.8 mph - N/A   Clear
4:15 PM 57.2 °F - 30.2 °F 36% 30.26 in 10.0 mi SW 12.7 mph 17.3 mph N/A   Clear
4:35 PM 57.2 °F - 30.2 °F 36% 30.26 in 10.0 mi SW 9.2 mph 16.1 mph N/A   Clear
4:55 PM 55.4 °F - 32.0 °F 41% 30.26 in 10.0 mi SSW 6.9 mph - N/A   Clear
5:15 PM 53.6 °F - 32.0 °F 44% 30.25 in 10.0 mi SSW 8.1 mph - N/A   Clear
5:35 PM 53.6 °F - 32.0 °F 44% 30.25 in 10.0 mi SSW 11.5 mph - N/A   Clear
5:55 PM 51.8 °F - 33.8 °F 50% 30.24 in 10.0 mi South 4.6 mph - N/A   Clear
6:15 PM 48.2 °F - 33.8 °F 58% 30.25 in 10.0 mi South 9.2 mph - N/A   Clear
6:35 PM 48.2 °F - 35.6 °F 62% 30.25 in 10.0 mi South 10.4 mph - N/A   Clear
6:55 PM 48.2 °F - 35.6 °F 62% 30.25 in 10.0 mi South 11.5 mph - N/A   Clear
7:15 PM 48.2 °F - 35.6 °F 62% 30.26 in 10.0 mi SSW 9.2 mph - N/A   Clear
7:35 PM 46.4 °F 42.4 °F 35.6 °F 66% 30.26 in 10.0 mi SW 8.1 mph - N/A   Clear
7:55 PM 46.4 °F 41.9 °F 35.6 °F 66% 30.26 in 10.0 mi SSW 9.2 mph - N/A   Clear
8:15 PM 44.6 °F 42.2 °F 35.6 °F 71% 30.26 in 10.0 mi SSW 4.6 mph - N/A   Clear
8:35 PM 44.6 °F 40.2 °F 35.6 °F 71% 30.25 in 10.0 mi SSW 8.1 mph - N/A   Clear
8:55 PM 42.8 °F 37.5 °F 35.6 °F 76% 30.25 in 10.0 mi SSW 9.2 mph - N/A   Clear
9:15 PM 42.8 °F 37.5 °F 35.6 °F 76% 30.24 in 10.0 mi SW 9.2 mph - N/A   Clear
9:35 PM 44.6 °F 41.4 °F 35.6 °F 71% 30.24 in 10.0 mi West 5.8 mph - N/A   Clear
9:55 PM 41.0 °F 35.8 °F 37.4 °F 87% 30.23 in 10.0 mi West 8.1 mph - N/A   Clear
10:15 PM 39.2 °F 33.6 °F 35.6 °F 87% 30.23 in 10.0 mi WSW 8.1 mph - N/A   Clear
10:35 PM 39.2 °F 35.0 °F 35.6 °F 87% 30.22 in 10.0 mi WSW 5.8 mph - N/A   Clear
10:55 PM 39.2 °F 37.0 °F 37.4 °F 93% 30.21 in 10.0 mi WSW 3.5 mph - N/A   Clear
11:15 PM 39.2 °F 33.6 °F 35.6 °F 87% 30.20 in 10.0 mi SW 8.1 mph - N/A   Clear
11:35 PM 37.4 °F 31.4 °F 35.6 °F 93% 30.20 in 10.0 mi WSW 8.1 mph - N/A   Clear
11:55 PM 39.2 °F 32.5 °F 35.6 °F 87% 30.19 in 10.0 mi WSW 10.4 mph - N/A   Clear